Find Starlink 37102

NORAD ID: 68183 Int'l Des: 2026-050 Owner: SPXS Country: US Constellation: starlink operational
LEOCIRCULAR

实时位置

正在加载3D地球...

关于 Starlink 37102

正在加载描述...

即将过境

Passes for default location (London). Set your location on the main map for personalized predictions.

高度历史

Loading altitude history...

两行轨道根数

1 68183U 26050S 26120.93696214 .00028336 00000-0 73376-3 0 9991
2 68183 53.1605 25.4070 0001304 72.7053 287.4095 15.38858929 8661
Epoch: Apr 30, 2026 • Age: 10 hours

当前状态

高度 450.3 km
速度 7.64 km/s
星下点 1.77°N, 146.31°W
发射日期 Mar 14, 2026
运行时间 0.1 years
类型 internet

技术详情

分类 Payload
质量 575.00 kg
干质量 530.00 kg
总质量 575.00 kg
长度 0.30 m
直径 4.10 m
跨度 29.00 m
形状 Box + pan
制造商 SPXS
平台类型 Starlink V2MO
阶段状态 In Orbit
所有者/国家 SPXS/US

Most Searched